This is the latest recevied weather packets stored in our database for station/object N3WPH. If no packets are shown the sender has not sent any weather packets the latest 10 day(s).
| Time | Temp. | Humidity | Pressure | Rain* | Wind** | Luminosity | Snow |
|---|---|---|---|---|---|---|---|
| 1777751172 | 12.22° C | 40% | 1012.1 hPa | 0 mm | - | 283 W/m² | - |
| 1777750868 | 12.78° C | 42% | 1012.1 hPa | 0 mm | - | 362 W/m² | - |
| 1777750566 | 13.33° C | 40% | 1012.2 hPa | 0 mm | - | 372 W/m² | - |
| 1777750263 | 11.67° C | 50% | 1012.3 hPa | 0 mm | - | 832 W/m² | - |
| 1777749958 | 11.67° C | 45% | 1012.7 hPa | 0 mm | - | 394 W/m² | - |
| 1777749656 | 11.67° C | 41% | 1012.6 hPa | 0 mm | - | 342 W/m² | - |
| 1777749352 | 11.67° C | 42% | 1012.8 hPa | 0 mm | - | 384 W/m² | - |
| 1777749050 | 11.11° C | 49% | 1012.8 hPa | 0 mm | - | 483 W/m² | - |
| 1777748748 | 11.11° C | 44% | 1012.8 hPa | 0 mm | - | 228 W/m² | - |
| 1777748444 | 10.56° C | 45% | 1012.7 hPa | 0 mm | - | 200 W/m² | - |
| 1777748139 | 11.11° C | 45% | 1012.7 hPa | 0 mm | - | 194 W/m² | - |
| 1777747836 | 11.67° C | 45% | 1012.7 hPa | 0 mm | - | 213 W/m² | - |
| 1777747532 | 11.11° C | 46% | 1012.7 hPa | 0 mm | - | 247 W/m² | - |
| 1777747228 | 11.67° C | 43% | 1012.7 hPa | 0 mm | - | 287 W/m² | - |
| 1777746925 | 12.78° C | 45% | 1012.6 hPa | 0 mm | - | 315 W/m² | - |
| 1777746621 | 12.78° C | 38% | 1012.8 hPa | 0 mm | - | 604 W/m² | - |
| 1777746316 | 12.78° C | 41% | 1012.8 hPa | 0 mm | - | 419 W/m² | - |
| 1777746012 | 12.22° C | 44% | 1012.8 hPa | 0 mm | - | 383 W/m² | - |
| 1777745710 | 12.22° C | 47% | 1012.7 hPa | 0 mm | - | 630 W/m² | - |
| 1777745409 | 11.67° C | 43% | 1012.8 hPa | 0 mm | - | 497 W/m² | - |
| 1777745105 | 11.67° C | 45% | 1012.9 hPa | 0 mm | - | 345 W/m² | - |
| 1777744802 | 11.11° C | 45% | 1012.7 hPa | 0 mm | - | 309 W/m² | - |
| 1777744496 | 11.11° C | 46% | 1012.6 hPa | 0 mm | - | 270 W/m² | - |
| 1777744192 | 11.11° C | 47% | 1012.9 hPa | 0 mm | - | 211 W/m² | - |
| 1777743890 | 12.22° C | 45% | 1012.9 hPa | 0 mm | - | 175 W/m² | - |
* Rain latest hour (hover to see other rain measurements)
** Current wind speed in m/s (hover to see current wind gust speed)